Regional Weather Roundup
Issued by NWS Newport/Morehead, NC

Current Version | Previous Version | Graphics & Text | Print | Product List | Glossary On
Versions: 1 2 3 4 5 6 7 8 9 10 11 12 13 14 15 16 17 18 19 20 21 22 23 24 25 26 27 28 29 30 31 32 33 34 35 36 37 38 39 40 41 42 43 44 45 46 47 48 49 50
000 ASUS42 KMHX 021913 RWRMHX WEATHER ROUNDUP FOR EASTERN NORTH CAROLINA NATIONAL WEATHER SERVICE NEWPORT/MOREHEAD CITY NC 300 PM EDT SUN AUG 02 2015 NOTE: "FAIR" INDICATES FEW OR NO CLOUDS BELOW 12,000 FEET WITH NO SIGNIFICANT WEATHER AND/OR OBSTRUCTIONS TO VISIBILITY NCZ015>017-031-032-045>047-102-103-022000- NORTH COAST CITY SKY/WX TMP DP RH WIND PRES REMARKS EDENTON N/A 93 62 34 SW9 29.92S ELIZABETH CITY MOSUNNY 91 67 44 SW5 29.92S KITTY HAWK CLEAR 94 69 45 SE9 29.92S MANTEO MOSUNNY 88 75 65 S10G16 29.93S $$ NCZ045>047-081-094-103-104-022000- CENTRAL COAST CITY SKY/WX TMP DP RH WIND PRES REMARKS FRISCO SUNNY 87 76 69 S12 29.95S SWANQUARTER N/A 90 N/A N/A S10 29.88S $$ NCZ095-097-098-100-101-022000- SOUTHERN COAST CITY SKY/WX TMP DP RH WIND PRES REMARKS BEAUFORT PTSUNNY 85 77 77 S13 29.95S CEDAR ISLAND N/A 90 N/A N/A SE5G13 29.97F JACKSONVILLE PTSUNNY 82 70 66 S8 29.94R THUNDER PINEY ISLAND NOT AVBL WILMINGTON CLOUDY 86 73 65 SE9 29.94S $$ NCZ011>013-027>030-043-044-078>080-089-090>093-098-022000- COASTAL PLAIN CITY SKY/WX TMP DP RH WIND PRES REMARKS AHOSKIE MOSUNNY 89 64 43 N7 29.93F CLINTON SUNNY 91 62 37 CALM 29.93F ELIZABETHTOWN SUNNY 95 58 28 SE5 29.92F GOLDSBORO SUNNY 93 61 33 NW6 29.91F GREENVILLE MOSUNNY 95 61 31 NW5 29.94F HAVELOCK NOT AVBL KENANSVILLE SUNNY 92 55 28 CALM 29.94F KINSTON SUNNY 93 57 29 SE3 29.94S NEW BERN SUNNY 93 62 35 SW5 29.93F RICHLANDS SUNNY 95 61 31 S3 29.93S ROCKY MOUNT SUNNY 94 58 29 VRB7 29.93F WASHINGTON SUNNY 91 64 40 W8 29.93S WHITEVILLE SUNNY 92 64 39 N5 29.91F $$ AMZ130-135-150-152-154-156-158-170-250-252-270-ANZ085-086-088-633-658-670-022000- MARINE OBSERVATIONS STATION/POSITION TIME TEMP WIND PRES WAVE SWELL AIR SEA DIR/SP/G HT/PER HT/PER (UTC) (F) (DEG/KT/KT) (MB) (FT/S) (FT/S) CHESAPEAKE LIGHT 1900 80 30/ 8/ 9 1014.2 64 E VA BEACH 1850 82 83 160/ 14/ 16 1013.1 3/11 2/11 DUCK 1800 85 80 120/ 6/ 7 1012.6 2 E DUCK 1811 82 N/A 2/13 OREGON INLET 1800 84 80 120/ 8/ 11 1013.7 13E OREGON INLT 1900 82 N/A 3/ 7 2/13 HATTERAS CG 1800 86 81 170/ 6/ 10 1014.1 DIAMOND BUOY 1850 82 86 180/ 14/ 17 1014.3 3/11 2/11 CAPE LOOKOUT 1900 83 170/ 14/ 16 1014.0 BEAUFORT LAB 1800 83 83 180/ 11/ 14 1013.5 30 SE NEW RVR IN NOT AVBL 27 SE WRIGHTSVLE 1800 80 84 190/ 10/ 12 N/A 5 SE WRIGHTSVLE 1808 83 84 190/ 14/ 17 1014.3 225 S CAPE HAT 1850 82 81 270/ 6/ 8 1017.0 6/ 7 5/ 7 41 SE CHARLESTON 1850 78 83 160/ 6/ 8 1014.1 4/ 6 3/ 6 $$

USA.gov is the U.S. government's official web portal to all federal, state and local government web resources and services.